Hourly Data Report for June 06, 2021

BORDEN AWOS
ONTARIO
Current Station Operator: DND

44°16'20.000" N
79°54'42.000" W
222.50 m
611B002
71534
YBN

Download Data

Hourly Data (June 2021)
Hourly Data Report for June 6, 2021
TIME
LST
Temp Definition
°C
Dew Point Definition
°C
Rel Hum Definition
%
Precip. Amount Definition
mm

Wind Dir Definition
10's deg

Wind Spd Definition
km/h
Visibility Definition
km
Stn Press Definition
kPa
Hmdx Definition


Wind Chill Definition


Weather Definition


00:00 24.0 14.2 54   23 11 14.5 98.56 27   LegendNANA
01:00 24.7 14.1 52   22 11 14.5 98.57 28   LegendNANA
02:00 24.7 14.0 51   23 20 14.5 98.56 28   LegendNANA
03:00 21.8 15.5 67   23 17 11.3 98.55 26   Moderate Rain
04:00 22.3 14.8 63   23 11 14.5 98.58 26   LegendNANA
05:00 22.7 14.3 59   24 13 14.5 98.64 26   LegendNANA
06:00 22.8 14.4 59   30 9 14.5 98.71 26   LegendNANA
07:00 23.0 14.5 59   24 15 14.5 98.76 27   LegendNANA
08:00 24.8 15.8 57   25 7 14.5 98.78 29   LegendNANA
09:00 27.6 16.7 52   24 17 14.5 98.74 33   LegendNANA
10:00 29.6 17.0 47   23 20 14.5 98.73 35   LegendNANA
11:00 31.6 17.5 43   26 26 14.5 98.70 37   LegendNANA
12:00 32.0 17.5 42   23 24 14.5 98.72 38   LegendNANA
13:00 33.3 16.9 38   24 22 14.5 98.72 39   LegendNANA
14:00 33.7 16.2 35   24 22 14.5 98.71 38   LegendNANA
15:00 33.2 15.7 35   25 22 14.5 98.69 38   LegendNANA
16:00 33.0 15.3 35   23 24 14.5 98.66 37   LegendNANA
17:00 32.4 15.3 36   25 19 14.5 98.63 37   LegendNANA
18:00 31.8 15.9 38   25 13 14.5 98.64 36   LegendNANA
19:00 30.4 16.8 44   22 9 14.5 98.66 36   LegendNANA
20:00 27.2 15.5 49   22 17 14.5 98.73 31   LegendNANA
21:00 24.4 14.8 55   21 11 14.5 98.81 28   LegendNANA
22:00 22.4 13.6 58   19 9 14.5 98.84 26   LegendNANA
23:00 20.6 12.9 61   20 6 14.5 98.85     LegendNANA

Notes on Data Quality.

Legend

  • E = Estimated
  • M = Missing
  • NA = Not Available*
  • [empty] = Indicates an unobserved value
Date modified: